Weather in Kopnino

Russia / Yaroslavl Oblast     56°52′43″N   38°28′28″E
temp.,
°C
wind,
m/s
gust,
m/s
humid.,
%
clouds,
%
prec.,
mm/h
press.,
hPa
HPBL,
m
23 april, fri
fri2300:00+6sse3119175 0.1 1014260
03:00+6sse311935 0.1 1014282
06:00+6sse4119477 0.0 1014338
09:00+11s5127592 0.3 1014778
12:00+15s7135624 0.2 10121993
15:00+16s7125139 1.0 10112396
18:00+6wnw469195 1.1 1013258
21:00+6nw1294100 4.6 1013210
24 april, sat
sat2400:00+6se0195100 1.8 1011134
03:00+6nw1297100 1.9 1008216
06:00+3wnw3597100 0.6 1007278
09:00+1w3599100 4.7 1007136
12:00+2wsw36100100 3.9 1007291
15:00+3wsw2599100 4.6 1007575
18:00+3wnw3598100 0.6 1007535
21:00+2nnw3996100 2.6 1008501
25 april, sun
sun2500:00+2w3898100 0.1 1007346
03:00+1w31092100 0.1 1006355
06:00−1w41090100 0.0 1007369
09:00+3w6984100 0.0 10071026
12:00+6w6959100 0.2 10072048
15:00+7wsw6105791 0.6 10071995
18:00+5w596591 0.4 10081193
21:00+1wsw3118346 0.4 1009347
26 april, mon
mon2600:000sw411865 0.0 1010309
03:00−1sw39935 0.0 1011240
06:00−1sw39875 0.0 1011311
09:00+4wsw57665 0.0 1011994
12:00+7wsw5748100 0.1 10102303
15:00+8wsw474496 0.1 10102048
18:00+6sw365918 0.2 1009480
21:00+2sw268011 0.4 1010113
27 april, tue
tue2700:000sw228590 0.1 100940
03:00−1wsw229046 0.1 100936
06:000wsw248598 0.0 1009131
09:00+5wsw346218 0.0 1009676
12:00+7wsw4550100 0.4 10091958
15:00+8w464995 1.3 10091830
18:00+6wsw356396 1.6 1009312
21:00+2sw25825 2.3 101175